This demonstration page uses our WeatherBlox Daily Observations layout. Learn more.

38.89511, -77.03637

Hourly Observations for November 29, 2017

Temp ( °F °C ) Dew Point ( °F °C ) Humidity (%) Winds ( mph kmh ) Pressure ( in mb ) Visibility ( mi km ) Precip ( " mm )
12:52 am 00:52 Clear 48 8.9 43 6.1 83 83 SSW 8 13 30.21 1023 10 16.09344 0 0
1:52 am 01:52 Clear 46 7.8 43 6.1 89 89 SSW 8 13 30.18 1022 10 16.09344 0 0
2:52 am 02:52 Clear 47 8.3 43 6.1 86 86 S 8 13 30.18 1022 10 16.09344 0 0
3:52 am 03:52 Clear 45 7.2 41 5 86 86 SSW 7 11 30.15 1021 10 16.09344 0 0
4:52 am 04:52 Clear 44 6.7 40 4.4 85 85 SW 5 7 30.15 1021 10 16.09344 0 0
5:52 am 05:52 Clear 43 6.1 39 3.9 86 86 SSW 7 11 30.15 1021 10 16.09344 0 0
6:52 am 06:52 Clear 43 6.1 38 3.3 82 82 SSW 6 9 30.18 1022 10 16.09344 0 0
7:52 am 07:52 Sunny 44 6.7 37 2.8 76 76 SSW 7 11 30.18 1022 10 16.09344 0 0
8:52 am 08:52 Sunny 47 8.3 40 4.4 77 77 S 6 9 30.18 1022 10 16.09344 0 0
9:52 am 09:52 Mostly Sunny 50 10 37 2.8 61 61 S 6 9 30.21 1023 10 16.09344 0 0
10:52 am 10:52 Mostly Sunny 55 12.8 38 3.3 53 53 S 6 9 30.18 1022 10 16.09344 0 0
11:52 am 11:52 Partly Cloudy 61 16.1 37 2.8 41 41 S 7 11 30.18 1022 10 16.09344 0 0
12:52 pm 12:52 Partly Cloudy 68 20 37 2.8 32 32 NW 13 20 30.15 1021 10 16.09344 0 0
1:52 pm 13:52 Partly Cloudy 69 20.6 38 3.3 32 32 NW 10 17 30.15 1021 10 16.09344 0 0
2:52 pm 14:52 Partly Cloudy 70 21.1 39 3.9 32 32 N 10 17 30.15 1021 10 16.09344 0 0
3:52 pm 15:52 Partly Cloudy 66 18.9 37 2.8 34 34 NW 10 17 30.18 1022 10 16.09344 0 0
4:52 pm 16:52 Mostly Clear 61 16.1 33 0.6 35 35 NNW 16 26 30.21 1023 10 16.09344 0 0
5:52 pm 17:52 Mostly Clear 59 15 30 -1.1 33 33 NNW 9 15 30.21 1023 10 16.09344 0 0
6:52 pm 18:52 Clear 58 14.4 29 -1.7 33 33 N 5 7 30.24 1024 10 16.09344 0 0
7:52 pm 19:52 Clear 49 9.4 35 1.7 59 59 Calm 30.24 1024 10 16.09344 0 0
8:52 pm 20:52 Clear 50 10 36 2.2 59 59 NE 5 7 30.27 1025 10 16.09344 0 0
9:52 pm 21:52 Clear 50 10 32 0 50 50 NNE 3 6 30.27 1025 10 16.09344 0 0
10:52 pm 22:52 Mostly Clear 44 6.7 37 2.8 76 76 NNE 12 19 30.27 1025 10 16.09344 0 0
11:52 pm 23:52 Mostly Cloudy 47 8.3 35 1.7 63 63 Calm 30.27 1025 10 16.09344 0 0

Powered by AerisWeather